Location: Clanezzo
(45.7500°N, 9.6000°E)
Time: 09:26:55
(UTC+00:00)

CUTE-I - Pass Details

Date: 07 December 2023
Orbit: 807 x 822 km, 98.7° (Epoch: 23 February)

Event Time Altitude Azimuth Distance (km) Brightness Sun altitude
Rises 17:35:03 0° 193° (SSW) 3,313 ? -19.7°
Reaches altitude 10° 17:37:38 10° 203° (SSW) 2,389 ? -20.2°
Maximum altitude 17:42:16 31° 265° (W) 1,400 ? -20.9°
Drops below altitude 10° 17:46:58 10° 326° (NNW) 2,413 ? -21.8°
Sets 17:49:36 0° 337° (NNW) 3,352 ? -22.2°
